This is the latest recevied weather packets stored in our database for station/object KA3RQR. If no packets are shown the sender has not sent any weather packets the latest 10 day(s).
| Time | Temp. | Humidity | Pressure | Rain* | Wind** | Luminosity | Snow |
|---|---|---|---|---|---|---|---|
| 1777647082 | 12.78° C | 49% | 1015.2 hPa | 0 mm | - | 43 W/m² | - |
| 1777646778 | 13.33° C | 50% | 1015.1 hPa | 0 mm | - | 43 W/m² | - |
| 1777646478 | 13.33° C | 50% | 1015.3 hPa | 0 mm | - | 45 W/m² | - |
| 1777646175 | 13.33° C | 52% | 1015.1 hPa | 0 mm | - | 48 W/m² | - |
| 1777645872 | 12.78° C | 50% | 1015.1 hPa | 0 mm | - | 42 W/m² | - |
| 1777645569 | 12.78° C | 53% | 1015.5 hPa | 0 mm | - | 90 W/m² | - |
| 1777645265 | 12.78° C | 51% | 1015.2 hPa | 0 mm | - | 129 W/m² | - |
| 1777644961 | 12.22° C | 51% | 1015.3 hPa | 0 mm | - | 49 W/m² | - |
| 1777644659 | 12.22° C | 54% | 1015.3 hPa | 0 mm | - | 42 W/m² | - |
| 1777644355 | 12.22° C | 55% | 1015.4 hPa | 0 mm | - | 41 W/m² | - |
| 1777644051 | 12.22° C | 58% | 1015.4 hPa | 0 mm | - | 51 W/m² | - |
| 1777643748 | 11.67° C | 57% | 1015.4 hPa | 0 mm | - | 41 W/m² | - |
| 1777643446 | 11.67° C | 54% | 1015.4 hPa | 0 mm | - | 42 W/m² | - |
| 1777643142 | 11.67° C | 54% | 1015.6 hPa | 0 mm | - | 46 W/m² | - |
| 1777642839 | 11.67° C | 61% | 1015.2 hPa | 0 mm | - | 50 W/m² | - |
| 1777642536 | 11.11° C | 63% | 1015.5 hPa | 0 mm | - | 46 W/m² | - |
| 1777642232 | 11.11° C | 64% | 1015.3 hPa | 0 mm | - | 40 W/m² | - |
| 1777641930 | 10.56° C | 66% | 1015.4 hPa | 0 mm | - | 42 W/m² | - |
| 1777641625 | 10.56° C | 66% | 1015.5 hPa | 0 mm | - | 46 W/m² | - |
| 1777641016 | 10.56° C | 66% | 1015.7 hPa | 0 mm | - | 42 W/m² | - |
| 1777639501 | 10° C | 70% | 1015.7 hPa | 0 mm | - | 46 W/m² | - |
| 1777638894 | 10° C | 72% | 1015.7 hPa | 0 mm | - | 46 W/m² | - |
| 1777638589 | 9.44° C | 72% | 1015.9 hPa | 0 mm | - | 36 W/m² | - |
| 1777638286 | 9.44° C | 74% | 1015.8 hPa | 0 mm | - | 36 W/m² | - |
| 1777637982 | 8.89° C | 76% | 1015.7 hPa | 0 mm | - | 37 W/m² | - |
* Rain latest hour (hover to see other rain measurements)
** Current wind speed in m/s (hover to see current wind gust speed)